TimePDT,TemperatureF,Dew PointF,Humidity,Sea Level PressureIn,VisibilityMPH,Wind Direction,Wind SpeedMPH,Gust SpeedMPH,PrecipitationIn,Events,Conditions,WindDirDegrees,DateUTC
12:53 AM,43.0,33.1,68,30.00,10.0,NNW,4.6,-,N/A,,Clear,330,2013-03-28 07:53:00
1:53 AM,37.9,32.0,79,30.01,10.0,ENE,4.6,-,N/A,,Clear,70,2013-03-28 08:53:00
2:53 AM,36.0,32.0,86,30.01,10.0,North,6.9,-,N/A,,Clear,10,2013-03-28 09:53:00
3:53 AM,37.9,32.0,79,30.02,10.0,WSW,4.6,-,N/A,,Partly Cloudy,250,2013-03-28 10:53:00
4:53 AM,39.0,33.1,79,30.02,10.0,North,4.6,-,N/A,,Partly Cloudy,350,2013-03-28 11:53:00
5:53 AM,35.1,32.0,89,30.03,10.0,North,5.8,-,N/A,,Mostly Cloudy,360,2013-03-28 12:53:00
6:53 AM,37.9,33.1,83,30.04,10.0,NNW,4.6,-,N/A,,Mostly Cloudy,340,2013-03-28 13:53:00
7:53 AM,39.9,36.0,86,30.06,10.0,NE,5.8,-,N/A,,Overcast,40,2013-03-28 14:53:00
8:53 AM,41.0,36.0,82,30.08,10.0,Calm,Calm,-,N/A,,Overcast,0,2013-03-28 15:53:00
9:53 AM,46.9,37.0,68,30.08,10.0,NNE,3.5,-,N/A,,Scattered Clouds,30,2013-03-28 16:53:00
10:53 AM,53.1,39.0,59,30.07,10.0,NE,3.5,-,N/A,,Scattered Clouds,40,2013-03-28 17:53:00
11:53 AM,55.0,37.9,53,30.07,10.0,Calm,Calm,-,N/A,,Overcast,0,2013-03-28 18:53:00
12:53 PM,57.9,37.9,47,30.06,10.0,Variable,4.6,-,N/A,,Partly Cloudy,0,2013-03-28 19:53:00
1:53 PM,59.0,37.9,46,30.05,10.0,SSW,8.1,-,N/A,,Partly Cloudy,200,2013-03-28 20:53:00
2:53 PM,60.1,37.9,44,30.04,10.0,SW,11.5,-,N/A,,Overcast,220,2013-03-28 21:53:00
3:53 PM,60.1,37.9,44,30.03,10.0,SSW,9.2,-,N/A,,Overcast,210,2013-03-28 22:53:00
4:53 PM,60.1,37.0,42,30.03,10.0,SSW,6.9,-,N/A,,Overcast,200,2013-03-28 23:53:00
5:53 PM,59.0,39.0,48,30.03,10.0,SSW,6.9,-,N/A,,Overcast,200,2013-03-29 00:53:00
6:53 PM,55.0,42.1,62,30.03,10.0,South,5.8,-,N/A,,Scattered Clouds,190,2013-03-29 01:53:00
7:53 PM,52.0,41.0,66,30.04,10.0,South,3.5,-,N/A,,Clear,180,2013-03-29 02:53:00
8:53 PM,46.9,39.0,74,30.06,10.0,SW,8.1,-,N/A,,Clear,230,2013-03-29 03:53:00
9:53 PM,45.0,37.9,76,30.06,10.0,SSW,8.1,-,N/A,,Clear,210,2013-03-29 04:53:00
10:53 PM,43.0,37.0,80,30.07,10.0,Calm,Calm,-,N/A,,Clear,0,2013-03-29 05:53:00
11:53 PM,42.1,37.0,82,30.08,10.0,Calm,Calm,-,N/A,,Clear,0,2013-03-29 06:53:00